Regional Weather Roundup
Issued by NWS

Home | Current Version | Previous Version | Graphics & Text | Print | Product List | Glossary On
Versions: 1 2 3 4 5 6 7 8 9 10 11 12 13 14 15 16 17 18 19 20 21 22 23 24 25 26 27 28 29 30 31 32 33 34 35 36 37 38 39 40 41 42 43 44 45 46 47 48 49 50
901
ASUS45 KBOU 030307
RWRCO

WEATHER ROUNDUP FOR COLORADO
NATIONAL WEATHER SERVICE DENVER/BOULDER CO
800 PM MST FRI DEC 02 2016

NOTE: "FAIR" INDICATES FEW OR NO CLOUDS BELOW 12000 FEET WITH NO
SIGNIFICANT WEATHER AND/OR OBSTRUCTIONS TO VISIBILITY.

COZ001>005-013-030-031-030400-
...NORTHWEST COLORADO...

CITY           SKY/WX    TMP DP  RH WIND       PRES   REMARKS
CRAIG          CLOUDY    23  16  74 SW5       30.18S WCI  17
HAYDEN         CLOUDY    19  12  73 CALM      30.16S
MEEKER         FAIR      16  12  84 CALM      30.17R
MOUNT WERNER   NOT AVBL
STEAMBOAT SPGS MOCLDY    17  16  93 CALM      30.15S
WALDEN           N/A     10   7  85 N7        30.10S WCI   0
$$

COZ006>008-011-030400-
...WEST CENTRAL VALLEYS...

CITY           SKY/WX    TMP DP  RH WIND       PRES   REMARKS
GRAND JUNCTION FAIR      32  19  58 W5        30.16R WCI  27
MONTROSE       LGT SNOW  28  25  88 S3        30.18R FOG
EAGLE          FLURRIES  25  21  85 W7        30.14R WCI  17
RIFLE          CLOUDY    27  24  89 S5        30.17S WCI  22
DELTA          CLOUDY    33  26  75 NE6       30.17R WCI  28
NUCLA          FLURRIES  30  27  86 NW6       30.17R WCI  24
$$

COZ017>023-064>068-030400-
...SOUTHWEST COLORADO...

CITY           SKY/WX    TMP DP  RH WIND       PRES   REMARKS
DURANGO        LGT SNOW  31  27  85 CALM      30.06R FOG
CORTEZ         LGT SNOW  31  29  92 E7        30.09R FOG     WCI  24
PAGOSA SPRINGS FLURRIES  29  28  96 CALM      30.07R
TELLURIDE      LGT SNOW  20  19  96 CALM      30.08S
WOLF CREEK PAS LGT SNOW  14  14 100 S12G22    30.09R WCI   0
$$

COZ009-010-012-014-032>034-037-058>063-030400-
...CENTRAL COLORADO...

CITY           SKY/WX    TMP DP  RH WIND       PRES   REMARKS
ASPEN          LGT SNOW  22  20  92 N5        30.08R FOG     WCI  16
BUENA VISTA    LGT SNOW  15  12  88 CALM      30.13R
COPPER MTN     NOT AVBL
BERTHOUD PASS  FAIR       5  -8  56 NW14G23   29.98S WCI -12
COTTONWOOD PAS LGT SNOW  18  14  86 CALM      30.07R VSB 1
GUNNISON       FAIR      21  17  84 CALM      30.09R
KREMMLING      LGT SNOW  25  21  86 CALM      30.12R
LEADVILLE      LGT SNOW   9   6  88 CALM      30.05R FOG
MONARCH PASS     N/A     12   9  85 S10       30.13R WCI  -1
SALIDA         CLOUDY    21  19  92 SE3       30.21S
SUNLIGHT       LGT SNOW N/A N/A N/A NW6       30.09R
WILKERSON PASS MOCLDY     9   5  85 SW8       30.05S WCI  -4
$$

COZ069>075-030400-
...SAN LUIS VALLEY/SANGRE DE CRISTO MOUNTAINS...

CITY           SKY/WX    TMP DP  RH WIND       PRES   REMARKS
ALAMOSA        CLOUDY    20  18  92 CALM      30.11R
LA VETA PASS   FOG       16  12  86 SW3       30.08R VSB 1/2
SAGUACHE       FLURRIES  21  19  93 CALM      30.10R
$$

COZ035-036-038>040-030400-
...NORTHERN COLORADO FRONT RANGE...

CITY           SKY/WX    TMP DP  RH WIND       PRES   REMARKS
DENVER INTL AP FAIR      22  16  78 S13       30.15F WCI  10
DMNS CITY PARK   N/A     29  22  74 E10       30.15S WCI  19
AURORA         PTCLDY    22  17  81 S7        30.15F WCI  13
FRONT RANGE AP PTCLDY    23  18  80 S6        30.16F WCI  16
ERIE MUNI ARPT CLOUDY    29  26  86 CALM      30.16F
BOULDER MUN AP CLOUDY    30  28  93 CALM      30.15F
CENTENNIAL     FAIR      23  18  81 S5        30.14F WCI  17
BROOMFIELD     CLOUDY    28  27  93 NW6       30.15F WCI  22
FORT COLLINS   MOCLDY    28  23  80 CALM      30.17F
LONGMONT       CLOUDY    32  28  84 CALM      30.18F
$$

COZ041-046-047-076>085-087-088-030400-
...PIKES PEAK/PALMER DIVIDE AND SOUTHERN FOOTHILLS...

CITY           SKY/WX    TMP DP  RH WIND       PRES   REMARKS
COLO. SPRINGS  CLOUDY    26  19  74 CALM      30.17S
A. F. ACADEMY  CLOUDY    23  19  86 S3        30.15R
SCHRIEVER AFB  NOT AVBL
ELLICOTT       CLOUDY   N/A N/A N/A CALM      30.17R
FALCON         CLOUDY    23  20  90 S3        30.16S
FORT CARSON    CLOUDY    27  18  70 S5        30.17R WCI  21
LIMON          CLOUDY    18  15  88 CALM      30.19S
MONUMENT HILL  FAIR      18  14  86 S9        30.14S WCI   6
TRINIDAD       CLOUDY    30  22  72 NE3       30.18R
$$

COZ042>045-048>051-090-091-030400-
...NORTHEAST COLORADO...

CITY           SKY/WX    TMP DP  RH WIND       PRES   REMARKS
GREELEY ARPT   CLOUDY    29  22  75 CALM      30.19F
AKRON          FAIR      27  19  72 S7        30.19S WCI  19
BURLINGTON     FAIR      32  19  58 N5        30.23R WCI  27
WRAY           NOT AVBL
STERLING       FAIR      25  19  80 CALM      30.21R
HOLYOKE        FAIR      30  21  69 S5        30.23S WCI  25
FORT MORGAN    FAIR      26  18  74 CALM      30.20S
$$

COZ086-089-092>099-030400-
...SOUTHEAST COLORADO...

CITY           SKY/WX    TMP DP  RH WIND       PRES   REMARKS
PUEBLO         CLOUDY    31  19  61 CALM      30.20S
LA JUNTA       CLOUDY    34  16  47 S7        30.23R WCI  28
LAMAR          LGT RAIN  38  18  44 NE3       30.22R
SPRINGFIELD      N/A     35  13  40 NE8       30.20R WCI  29
$$




USA.gov is the U.S. government's official web portal to all federal, state and local government web resources and services.